Regional Weather Roundup
Issued by NWS Goodland, KS

Home | Current Version | Previous Version | Graphics & Text | Print | Product List | Glossary On
Versions: 1 2 3 4 5 6 7 8 9 10 11 12 13 14 15 16 17 18 19 20 21 22 23 24 25 26 27 28 29 30 31 32 33 34 35 36 37 38 39 40 41 42 43 44 45 46 47 48 49 50
000
ASUS43 KGLD 031859
RWRGLD

GOODLAND FORECAST AREA HOURLY WEATHER ROUNDUP
NATIONAL WEATHER SERVICE GOODLAND KS
1200 PM MST TUE MAR 03 2015

...OFFICIAL OBSERVATIONS...

CITY           SKY/WX    TMP DP  RH WIND       PRES   REMARKS
GOODLAND KS    NOT AVBL
HILL CITY KS   NOT AVBL
IMPERIAL NEB   NOT AVBL
MCCOOK NEB     NOT AVBL
AKRON CO       NOT AVBL
BURLINGTON CO  NOT AVBL
LIMON CO       NOT AVBL
$$

...UNOFFICIAL OBSERVATIONS...

CITY           SKY/WX    TMP DP  RH WIND       PRES   REMARKS
COLBY KS       CLOUDY    30  19  64 NW18G28   29.91F WCI  18
GOVE KS          N/A     35  32  89 MISG        N/A
LENORA KS        N/A     34  32  92 S15         N/A
NORTON KS      SUNNY     36  12  38 N21G26    29.93R
SHARON SPRINGS   N/A     29  25  85 NE15        N/A  WCI  18
KIT CARSON CO    N/A     26  22  85 MISG        N/A
YUMA CO          N/A     25  13  59 N17G28      N/A  WCI  12
$$



USA.gov is the U.S. government's official web portal to all federal, state and local government web resources and services.